Simultaneous Nadir Overpasses (SNOs) Predictions

Prediction of SNOs between AQUA and METOP-A Satellite Orbit:

Table of predicted SNOs for the next 14.0 days since TLE Epoch: 9/7/2013
Index Date (AQUA) Time (AQUA) Lat,Lon (AQUA) SZA (AQUA ) Date (METOP-A) Time (METOP-A) Lat,Lon (METOP-A) SZA (METOP-A ) Distance(km) Time Diff (sec)
1 09/08/2013 13:21:04 -73.81, 154.02 111.72 09/08/2013 13:20:00 -73.82, 154.03 111.70 0.56 64
2 09/08/2013 14:10:33 73.89, -38.52 68.39 09/08/2013 14:10:39 73.88, -38.49 68.37 1.64 6
3 09/08/2013 15:00:04 -74.17, 128.50 111.31 09/08/2013 15:01:15 -74.14, 129.49 111.37 30.12 71
4 09/11/2013 08:55:22 -73.81,-139.55 110.66 09/11/2013 08:54:24 -73.82,-139.55 110.64 1.70 58
5 09/11/2013 09:44:51 73.89, 27.90 69.44 09/11/2013 09:45:03 73.88, 27.92 69.44 1.03 12
6 09/11/2013 10:34:26 -74.37,-165.55 110.04 09/11/2013 10:35:34 -74.39,-163.47 110.07 62.24 68
7 09/14/2013 04:29:39 -73.83, -73.17 109.57 09/14/2013 04:28:47 -73.83, -73.14 109.57 0.86 52
8 09/14/2013 05:19:07 73.87, 94.39 70.49 09/14/2013 05:19:26 73.89, 94.33 70.51 2.84 19
9 09/14/2013 06:08:48 -74.64, -99.80 108.68 09/14/2013 06:09:52 -74.64, -96.42 108.76 99.46 64
10 09/17/2013 00:03:56 -73.83, -6.73 108.49 09/17/2013 00:03:11 -73.83, -6.74 108.49 0.40 45
11 09/17/2013 00:53:24 73.87, 160.81 71.57 09/17/2013 00:53:50 73.89, 160.73 71.59 3.28 26
12 09/19/2013 19:38:13 -73.85, 59.65 107.39 09/19/2013 19:37:35 -73.83, 59.67 107.40 2.25 38
13 09/19/2013 20:27:41 73.89,-132.82 72.68 09/19/2013 20:28:14 73.88,-132.87 72.67 2.17 33




NCC Satellite Simultaneous Nadir Overpasses (SNOs) Prediction Service
